#datetime,building,power
2022-07-22T00:00:00,mnr,7.25
2022-07-22T00:01:00,mnr,7.30
2022-07-22T00:02:00,mnr,7.40
2022-07-22T00:03:00,mnr,7.38
2022-07-22T00:04:00,mnr,7.35
2022-07-22T00:05:00,mnr,7.41
2022-07-22T00:06:00,mnr,7.35
2022-07-22T00:07:00,mnr,7.39
2022-07-22T00:08:00,mnr,7.44
2022-07-22T00:09:00,mnr,6.85
2022-07-22T00:10:00,mnr,6.76
2022-07-22T00:11:00,mnr,6.72
2022-07-22T00:12:00,mnr,6.55
2022-07-22T00:13:00,mnr,6.63
2022-07-22T00:14:00,mnr,6.65
2022-07-22T00:15:00,mnr,6.65
2022-07-22T00:16:00,mnr,6.35
2022-07-22T00:17:00,mnr,6.42
2022-07-22T00:18:00,mnr,6.36
2022-07-22T00:19:00,mnr,6.35
2022-07-22T00:20:00,mnr,6.28
2022-07-22T00:21:00,mnr,6.32
2022-07-22T00:22:00,mnr,6.27
2022-07-22T00:23:00,mnr,6.40
2022-07-22T00:24:00,mnr,6.44
2022-07-22T00:25:00,mnr,6.40
2022-07-22T00:26:00,mnr,6.42
2022-07-22T00:27:00,mnr,6.39
2022-07-22T00:28:00,mnr,6.42
2022-07-22T00:29:00,mnr,6.37
2022-07-22T00:30:00,mnr,6.41
2022-07-22T00:31:00,mnr,6.39
2022-07-22T00:32:00,mnr,6.38
2022-07-22T00:33:00,mnr,6.40
2022-07-22T00:34:00,mnr,6.30
2022-07-22T00:35:00,mnr,6.38
2022-07-22T00:36:00,mnr,6.37
2022-07-22T00:37:00,mnr,6.36
2022-07-22T00:38:00,mnr,6.61
2022-07-22T00:39:00,mnr,6.49
2022-07-22T00:40:00,mnr,6.42
2022-07-22T00:41:00,mnr,6.43
2022-07-22T00:42:00,mnr,6.57
2022-07-22T00:43:00,mnr,7.58
2022-07-22T00:44:00,mnr,6.61
2022-07-22T00:45:00,mnr,6.51
2022-07-22T00:46:00,mnr,6.59
2022-07-22T00:47:00,mnr,6.55
2022-07-22T00:48:00,mnr,6.42
2022-07-22T00:49:00,mnr,6.34
2022-07-22T00:50:00,mnr,6.60
2022-07-22T00:51:00,mnr,6.46
2022-07-22T00:52:00,mnr,6.40
2022-07-22T00:53:00,mnr,6.31
2022-07-22T00:54:00,mnr,6.39
2022-07-22T00:55:00,mnr,6.41
2022-07-22T00:56:00,mnr,6.40
2022-07-22T00:57:00,mnr,6.40
2022-07-22T00:58:00,mnr,6.46
2022-07-22T00:59:00,mnr,6.48
2022-07-22T01:00:00,mnr,6.53
2022-07-22T01:01:00,mnr,6.37
2022-07-22T01:02:00,mnr,6.45
2022-07-22T01:03:00,mnr,6.42
2022-07-22T01:04:00,mnr,6.40
2022-07-22T01:05:00,mnr,6.39
2022-07-22T01:06:00,mnr,6.41
2022-07-22T01:07:00,mnr,6.35
2022-07-22T01:08:00,mnr,6.40
2022-07-22T01:09:00,mnr,6.42
2022-07-22T01:10:00,mnr,6.36
2022-07-22T01:11:00,mnr,8.22
2022-07-22T01:12:00,mnr,6.71
2022-07-22T01:13:00,mnr,6.40
2022-07-22T01:14:00,mnr,6.40
2022-07-22T01:15:00,mnr,6.46
2022-07-22T01:16:00,mnr,6.53
2022-07-22T01:17:00,mnr,6.41
2022-07-22T01:18:00,mnr,6.33
2022-07-22T01:19:00,mnr,6.35
2022-07-22T01:20:00,mnr,6.34
2022-07-22T01:21:00,mnr,6.37
2022-07-22T01:22:00,mnr,6.39
2022-07-22T01:23:00,mnr,6.27
2022-07-22T01:24:00,mnr,6.28
2022-07-22T01:25:00,mnr,6.31
2022-07-22T01:26:00,mnr,6.30
2022-07-22T01:27:00,mnr,6.32
2022-07-22T01:28:00,mnr,6.34
2022-07-22T01:29:00,mnr,6.28
2022-07-22T01:30:00,mnr,6.29
2022-07-22T01:31:00,mnr,6.31
2022-07-22T01:32:00,mnr,6.45
2022-07-22T01:33:00,mnr,6.63
2022-07-22T01:34:00,mnr,6.68
2022-07-22T01:35:00,mnr,6.43
2022-07-22T01:36:00,mnr,6.39
2022-07-22T01:37:00,mnr,6.55
2022-07-22T01:38:00,mnr,6.52
2022-07-22T01:39:00,mnr,6.44
2022-07-22T01:40:00,mnr,6.52
2022-07-22T01:41:00,mnr,6.48
2022-07-22T01:42:00,mnr,6.46
2022-07-22T01:43:00,mnr,6.73
2022-07-22T01:44:00,mnr,6.52
2022-07-22T01:45:00,mnr,6.61
2022-07-22T01:46:00,mnr,6.69
2022-07-22T01:47:00,mnr,6.76
2022-07-22T01:48:00,mnr,6.71
2022-07-22T01:49:00,mnr,6.71
2022-07-22T01:50:00,mnr,6.60
2022-07-22T01:51:00,mnr,6.61
2022-07-22T01:52:00,mnr,6.73
2022-07-22T01:53:00,mnr,6.59
2022-07-22T01:54:00,mnr,6.63
2022-07-22T01:55:00,mnr,6.60
2022-07-22T01:56:00,mnr,6.65
2022-07-22T01:57:00,mnr,6.65
2022-07-22T01:58:00,mnr,7.09
2022-07-22T01:59:00,mnr,6.65
2022-07-22T02:00:00,mnr,7.95
2022-07-22T02:01:00,mnr,6.73
2022-07-22T02:02:00,mnr,6.70
2022-07-22T02:03:00,mnr,6.63
2022-07-22T02:04:00,mnr,6.65
2022-07-22T02:05:00,mnr,7.01
2022-07-22T02:06:00,mnr,6.47
2022-07-22T02:07:00,mnr,6.52
2022-07-22T02:08:00,mnr,6.92
2022-07-22T02:09:00,mnr,6.34
2022-07-22T02:10:00,mnr,6.33
2022-07-22T02:11:00,mnr,6.41
2022-07-22T02:12:00,mnr,6.40
2022-07-22T02:13:00,mnr,6.71
2022-07-22T02:14:00,mnr,6.42
2022-07-22T02:15:00,mnr,6.36
2022-07-22T02:16:00,mnr,6.38
2022-07-22T02:17:00,mnr,6.42
2022-07-22T02:18:00,mnr,6.35
2022-07-22T02:19:00,mnr,6.34
2022-07-22T02:20:00,mnr,6.31
2022-07-22T02:21:00,mnr,6.31
2022-07-22T02:22:00,mnr,6.40
2022-07-22T02:23:00,mnr,6.46
2022-07-22T02:24:00,mnr,6.39
2022-07-22T02:25:00,mnr,6.41
2022-07-22T02:26:00,mnr,6.42
2022-07-22T02:27:00,mnr,6.42
2022-07-22T02:28:00,mnr,6.37
2022-07-22T02:29:00,mnr,6.39
2022-07-22T02:30:00,mnr,7.09
2022-07-22T02:31:00,mnr,6.41
2022-07-22T02:32:00,mnr,6.34
2022-07-22T02:33:00,mnr,6.99
2022-07-22T02:34:00,mnr,6.37
2022-07-22T02:35:00,mnr,6.46
2022-07-22T02:36:00,mnr,6.94
2022-07-22T02:37:00,mnr,7.20
2022-07-22T02:38:00,mnr,6.48
2022-07-22T02:39:00,mnr,6.49
2022-07-22T02:40:00,mnr,7.22
2022-07-22T02:41:00,mnr,6.45
2022-07-22T02:42:00,mnr,6.50
2022-07-22T02:43:00,mnr,6.48
2022-07-22T02:44:00,mnr,6.47
2022-07-22T02:45:00,mnr,6.46
2022-07-22T02:46:00,mnr,6.40
2022-07-22T02:47:00,mnr,6.48
2022-07-22T02:48:00,mnr,7.21
2022-07-22T02:49:00,mnr,6.78
2022-07-22T02:50:00,mnr,6.36
2022-07-22T02:51:00,mnr,6.29
2022-07-22T02:52:00,mnr,6.30
2022-07-22T02:53:00,mnr,6.32
2022-07-22T02:54:00,mnr,6.34
2022-07-22T02:55:00,mnr,6.87
2022-07-22T02:56:00,mnr,6.24
2022-07-22T02:57:00,mnr,6.22
2022-07-22T02:58:00,mnr,6.21
2022-07-22T02:59:00,mnr,6.39
2022-07-22T03:00:00,mnr,6.18
2022-07-22T03:01:00,mnr,6.15
2022-07-22T03:02:00,mnr,6.22
2022-07-22T03:03:00,mnr,6.30
2022-07-22T03:04:00,mnr,6.32
2022-07-22T03:05:00,mnr,6.28
2022-07-22T03:06:00,mnr,6.33
2022-07-22T03:07:00,mnr,6.25
2022-07-22T03:08:00,mnr,6.30
2022-07-22T03:09:00,mnr,6.55
2022-07-22T03:10:00,mnr,6.26
2022-07-22T03:11:00,mnr,6.34
2022-07-22T03:12:00,mnr,6.26
2022-07-22T03:13:00,mnr,6.32
2022-07-22T03:14:00,mnr,6.32
2022-07-22T03:15:00,mnr,6.34
2022-07-22T03:16:00,mnr,6.31
2022-07-22T03:17:00,mnr,6.44
2022-07-22T03:18:00,mnr,6.55
2022-07-22T03:19:00,mnr,6.47
2022-07-22T03:20:00,mnr,6.43
2022-07-22T03:21:00,mnr,6.38
2022-07-22T03:22:00,mnr,6.42
2022-07-22T03:23:00,mnr,6.33
2022-07-22T03:24:00,mnr,6.43
2022-07-22T03:25:00,mnr,6.45
2022-07-22T03:26:00,mnr,7.00
2022-07-22T03:27:00,mnr,6.42
2022-07-22T03:28:00,mnr,6.47
2022-07-22T03:29:00,mnr,6.36
2022-07-22T03:30:00,mnr,6.42
2022-07-22T03:31:00,mnr,6.36
2022-07-22T03:32:00,mnr,6.37
2022-07-22T03:33:00,mnr,6.37
2022-07-22T03:34:00,mnr,6.61
2022-07-22T03:35:00,mnr,6.34
2022-07-22T03:36:00,mnr,6.58
2022-07-22T03:37:00,mnr,6.34
2022-07-22T03:38:00,mnr,6.39
2022-07-22T03:39:00,mnr,6.36
2022-07-22T03:40:00,mnr,6.24
2022-07-22T03:41:00,mnr,6.30
2022-07-22T03:42:00,mnr,6.26
2022-07-22T03:43:00,mnr,6.31
2022-07-22T03:44:00,mnr,6.38
2022-07-22T03:45:00,mnr,6.36
2022-07-22T03:46:00,mnr,6.36
2022-07-22T03:47:00,mnr,6.38
2022-07-22T03:48:00,mnr,6.36
2022-07-22T03:49:00,mnr,6.36
2022-07-22T03:50:00,mnr,6.62
2022-07-22T03:51:00,mnr,6.49
2022-07-22T03:52:00,mnr,6.62
2022-07-22T03:53:00,mnr,6.32
2022-07-22T03:54:00,mnr,6.34
2022-07-22T03:55:00,mnr,6.23
2022-07-22T03:56:00,mnr,6.80
2022-07-22T03:57:00,mnr,6.35
2022-07-22T03:58:00,mnr,6.26
2022-07-22T03:59:00,mnr,6.24
2022-07-22T04:00:00,mnr,6.23
2022-07-22T04:01:00,mnr,6.26
2022-07-22T04:02:00,mnr,6.25
2022-07-22T04:03:00,mnr,6.31
2022-07-22T04:04:00,mnr,6.57
2022-07-22T04:05:00,mnr,6.27
2022-07-22T04:06:00,mnr,6.27
2022-07-22T04:07:00,mnr,6.26
2022-07-22T04:08:00,mnr,6.26
2022-07-22T04:09:00,mnr,6.98
2022-07-22T04:10:00,mnr,6.24
2022-07-22T04:11:00,mnr,6.24
2022-07-22T04:12:00,mnr,6.24
2022-07-22T04:13:00,mnr,6.23
2022-07-22T04:14:00,mnr,6.27
2022-07-22T04:15:00,mnr,6.39
2022-07-22T04:16:00,mnr,6.43
2022-07-22T04:17:00,mnr,6.98
2022-07-22T04:18:00,mnr,6.30
2022-07-22T04:19:00,mnr,6.76
2022-07-22T04:20:00,mnr,6.61
2022-07-22T04:21:00,mnr,6.62
2022-07-22T04:22:00,mnr,6.68
2022-07-22T04:23:00,mnr,6.67
2022-07-22T04:24:00,mnr,6.65
2022-07-22T04:25:00,mnr,6.73
2022-07-22T04:26:00,mnr,6.75
2022-07-22T04:27:00,mnr,6.73
2022-07-22T04:28:00,mnr,6.74
2022-07-22T04:29:00,mnr,6.64
2022-07-22T04:30:00,mnr,6.65
2022-07-22T04:31:00,mnr,6.77
2022-07-22T04:32:00,mnr,6.80
2022-07-22T04:33:00,mnr,6.70
2022-07-22T04:34:00,mnr,6.70
2022-07-22T04:35:00,mnr,6.81
2022-07-22T04:36:00,mnr,6.69
2022-07-22T04:37:00,mnr,6.69
2022-07-22T04:38:00,mnr,6.74
2022-07-22T04:39:00,mnr,6.70
2022-07-22T04:40:00,mnr,6.69
2022-07-22T04:41:00,mnr,6.98
2022-07-22T04:42:00,mnr,6.78
2022-07-22T04:43:00,mnr,6.71
2022-07-22T04:44:00,mnr,6.71
2022-07-22T04:45:00,mnr,6.68
2022-07-22T04:46:00,mnr,6.77
2022-07-22T04:47:00,mnr,6.80
2022-07-22T04:48:00,mnr,7.30
2022-07-22T04:49:00,mnr,7.07
2022-07-22T04:50:00,mnr,6.77
2022-07-22T04:51:00,mnr,6.75
2022-07-22T04:52:00,mnr,6.79
2022-07-22T04:53:00,mnr,6.76
2022-07-22T04:54:00,mnr,6.76
2022-07-22T04:55:00,mnr,6.76
2022-07-22T04:56:00,mnr,6.75
2022-07-22T04:57:00,mnr,6.77
2022-07-22T04:58:00,mnr,6.73
2022-07-22T04:59:00,mnr,6.77
2022-07-22T05:00:00,mnr,6.73
2022-07-22T05:01:00,mnr,6.86
2022-07-22T05:02:00,mnr,8.54
2022-07-22T05:03:00,mnr,9.51
2022-07-22T05:04:00,mnr,10.27
2022-07-22T05:05:00,mnr,10.15
2022-07-22T05:06:00,mnr,10.28
2022-07-22T05:07:00,mnr,10.21
2022-07-22T05:08:00,mnr,10.22
2022-07-22T05:09:00,mnr,10.18
2022-07-22T05:10:00,mnr,10.16
2022-07-22T05:11:00,mnr,10.21
2022-07-22T05:12:00,mnr,10.16
2022-07-22T05:13:00,mnr,10.19
2022-07-22T05:14:00,mnr,10.21
2022-07-22T05:15:00,mnr,10.46
2022-07-22T05:16:00,mnr,10.16
2022-07-22T05:17:00,mnr,10.19
2022-07-22T05:18:00,mnr,10.24
2022-07-22T05:19:00,mnr,10.20
2022-07-22T05:20:00,mnr,10.21
2022-07-22T05:21:00,mnr,10.20
2022-07-22T05:22:00,mnr,10.20
2022-07-22T05:23:00,mnr,10.73
2022-07-22T05:24:00,mnr,12.06
2022-07-22T05:25:00,mnr,12.00
2022-07-22T05:26:00,mnr,11.97
2022-07-22T05:27:00,mnr,12.80
2022-07-22T05:28:00,mnr,12.18
2022-07-22T05:29:00,mnr,12.12
2022-07-22T05:30:00,mnr,12.01
2022-07-22T05:31:00,mnr,12.00
2022-07-22T05:32:00,mnr,11.41
2022-07-22T05:33:00,mnr,11.41
2022-07-22T05:34:00,mnr,11.35
2022-07-22T05:35:00,mnr,11.35
2022-07-22T05:36:00,mnr,11.09
2022-07-22T05:37:00,mnr,12.57
2022-07-22T05:38:00,mnr,12.05
2022-07-22T05:39:00,mnr,12.05
2022-07-22T05:40:00,mnr,11.93
2022-07-22T05:41:00,mnr,12.88
2022-07-22T05:42:00,mnr,12.85
2022-07-22T05:43:00,mnr,12.93
2022-07-22T05:44:00,mnr,12.98
2022-07-22T05:45:00,mnr,13.09
2022-07-22T05:46:00,mnr,13.09
2022-07-22T05:47:00,mnr,12.13
2022-07-22T05:48:00,mnr,12.01
2022-07-22T05:49:00,mnr,11.54
2022-07-22T05:50:00,mnr,12.23
2022-07-22T05:51:00,mnr,12.24
2022-07-22T05:52:00,mnr,12.22
2022-07-22T05:53:00,mnr,13.11
2022-07-22T05:54:00,mnr,13.19
2022-07-22T05:55:00,mnr,13.21
2022-07-22T05:56:00,mnr,13.14
2022-07-22T05:57:00,mnr,13.19
2022-07-22T05:58:00,mnr,12.65
2022-07-22T05:59:00,mnr,13.06
2022-07-22T06:00:00,mnr,12.91
2022-07-22T06:01:00,mnr,13.78
2022-07-22T06:02:00,mnr,13.72
2022-07-22T06:03:00,mnr,13.81
2022-07-22T06:04:00,mnr,13.71
2022-07-22T06:05:00,mnr,14.04
2022-07-22T06:06:00,mnr,14.01
2022-07-22T06:07:00,mnr,13.85
2022-07-22T06:08:00,mnr,13.82
2022-07-22T06:09:00,mnr,13.82
2022-07-22T06:10:00,mnr,13.77
2022-07-22T06:11:00,mnr,13.83
2022-07-22T06:12:00,mnr,13.96
2022-07-22T06:13:00,mnr,13.77
2022-07-22T06:14:00,mnr,14.28
2022-07-22T06:15:00,mnr,13.88
2022-07-22T06:16:00,mnr,12.36
2022-07-22T06:17:00,mnr,13.66
2022-07-22T06:18:00,mnr,13.53
2022-07-22T06:19:00,mnr,13.56
2022-07-22T06:20:00,mnr,13.70
2022-07-22T06:21:00,mnr,13.61
2022-07-22T06:22:00,mnr,13.62
2022-07-22T06:23:00,mnr,13.62
2022-07-22T06:24:00,mnr,13.63
2022-07-22T06:25:00,mnr,13.70
2022-07-22T06:26:00,mnr,14.15
2022-07-22T06:27:00,mnr,13.69
2022-07-22T06:28:00,mnr,11.45
2022-07-22T06:29:00,mnr,14.28
2022-07-22T06:30:00,mnr,13.61
2022-07-22T06:31:00,mnr,13.55
2022-07-22T06:32:00,mnr,13.61
2022-07-22T06:33:00,mnr,13.70
2022-07-22T06:34:00,mnr,13.75
2022-07-22T06:35:00,mnr,13.64
2022-07-22T06:36:00,mnr,13.60
2022-07-22T06:37:00,mnr,13.56
2022-07-22T06:38:00,mnr,13.63
2022-07-22T06:39:00,mnr,13.52
2022-07-22T06:40:00,mnr,13.49
2022-07-22T06:41:00,mnr,13.44
2022-07-22T06:42:00,mnr,13.40
2022-07-22T06:43:00,mnr,13.46
2022-07-22T06:44:00,mnr,13.55
2022-07-22T06:45:00,mnr,13.60
2022-07-22T06:46:00,mnr,13.63
2022-07-22T06:47:00,mnr,13.40
2022-07-22T06:48:00,mnr,13.34
2022-07-22T06:49:00,mnr,13.93
2022-07-22T06:50:00,mnr,12.76
2022-07-22T06:51:00,mnr,12.72
2022-07-22T06:52:00,mnr,12.79
2022-07-22T06:53:00,mnr,12.15
2022-07-22T06:54:00,mnr,11.62
2022-07-22T06:55:00,mnr,12.28
2022-07-22T06:56:00,mnr,11.28
2022-07-22T06:57:00,mnr,11.38
2022-07-22T06:58:00,mnr,11.48
2022-07-22T06:59:00,mnr,11.91
2022-07-22T07:00:00,mnr,11.68
2022-07-22T07:01:00,mnr,11.69
2022-07-22T07:02:00,mnr,12.20
2022-07-22T07:03:00,mnr,12.28
2022-07-22T07:04:00,mnr,11.64
2022-07-22T07:05:00,mnr,10.99
2022-07-22T07:06:00,mnr,11.09
2022-07-22T07:07:00,mnr,11.07
2022-07-22T07:08:00,mnr,11.07
2022-07-22T07:09:00,mnr,11.11
2022-07-22T07:10:00,mnr,11.09
2022-07-22T07:11:00,mnr,10.57
2022-07-22T07:12:00,mnr,10.34
2022-07-22T07:13:00,mnr,10.47
2022-07-22T07:14:00,mnr,11.62
2022-07-22T07:15:00,mnr,11.09
2022-07-22T07:16:00,mnr,11.28
2022-07-22T07:17:00,mnr,12.96
2022-07-22T07:18:00,mnr,12.99
2022-07-22T07:19:00,mnr,13.68
2022-07-22T07:20:00,mnr,14.16
2022-07-22T07:21:00,mnr,13.96
2022-07-22T07:22:00,mnr,13.96
2022-07-22T07:23:00,mnr,13.98
2022-07-22T07:24:00,mnr,14.08
2022-07-22T07:25:00,mnr,14.04
2022-07-22T07:26:00,mnr,14.02
2022-07-22T07:27:00,mnr,14.24
2022-07-22T07:28:00,mnr,14.00
2022-07-22T07:29:00,mnr,13.37
2022-07-22T07:30:00,mnr,13.04
2022-07-22T07:31:00,mnr,12.59
2022-07-22T07:32:00,mnr,12.23
2022-07-22T07:33:00,mnr,12.25
2022-07-22T07:34:00,mnr,11.71
2022-07-22T07:35:00,mnr,11.73
2022-07-22T07:36:00,mnr,10.25
2022-07-22T07:37:00,mnr,10.31
2022-07-22T07:38:00,mnr,10.34
2022-07-22T07:39:00,mnr,10.18
2022-07-22T07:40:00,mnr,10.13
2022-07-22T07:41:00,mnr,10.18
2022-07-22T07:42:00,mnr,10.09
2022-07-22T07:43:00,mnr,10.05
2022-07-22T07:44:00,mnr,10.05
2022-07-22T07:45:00,mnr,10.17
2022-07-22T07:46:00,mnr,10.11
2022-07-22T07:47:00,mnr,10.06
2022-07-22T07:48:00,mnr,10.09
2022-07-22T07:49:00,mnr,10.06
2022-07-22T07:50:00,mnr,10.03
2022-07-22T07:51:00,mnr,9.99
2022-07-22T07:52:00,mnr,10.05
2022-07-22T07:53:00,mnr,9.99
2022-07-22T07:54:00,mnr,9.94
2022-07-22T07:55:00,mnr,10.07
2022-07-22T07:56:00,mnr,10.93
2022-07-22T07:57:00,mnr,11.59
2022-07-22T07:58:00,mnr,11.60
2022-07-22T07:59:00,mnr,11.81
2022-07-22T08:00:00,mnr,11.36
2022-07-22T08:01:00,mnr,11.63
2022-07-22T08:02:00,mnr,16.95
2022-07-22T08:03:00,mnr,15.30
2022-07-22T08:04:00,mnr,14.49
2022-07-22T08:05:00,mnr,14.71
2022-07-22T08:06:00,mnr,14.44
2022-07-22T08:07:00,mnr,14.33
2022-07-22T08:08:00,mnr,14.49
2022-07-22T08:09:00,mnr,14.62
2022-07-22T08:10:00,mnr,14.94
2022-07-22T08:11:00,mnr,16.00
2022-07-22T08:12:00,mnr,14.72
2022-07-22T08:13:00,mnr,14.89
2022-07-22T08:14:00,mnr,14.93
2022-07-22T08:15:00,mnr,15.44
2022-07-22T08:16:00,mnr,15.49
2022-07-22T08:17:00,mnr,15.08
2022-07-22T08:18:00,mnr,15.29
2022-07-22T08:19:00,mnr,15.55
2022-07-22T08:20:00,mnr,15.49
2022-07-22T08:21:00,mnr,15.54
2022-07-22T08:22:00,mnr,15.58
2022-07-22T08:23:00,mnr,16.56
2022-07-22T08:24:00,mnr,15.76
2022-07-22T08:25:00,mnr,16.02
2022-07-22T08:26:00,mnr,16.23
2022-07-22T08:27:00,mnr,16.71
2022-07-22T08:28:00,mnr,18.72
2022-07-22T08:29:00,mnr,20.60
2022-07-22T08:30:00,mnr,21.95
2022-07-22T08:31:00,mnr,23.26
2022-07-22T08:32:00,mnr,23.91
2022-07-22T08:33:00,mnr,24.25
2022-07-22T08:34:00,mnr,25.24
2022-07-22T08:35:00,mnr,26.10
2022-07-22T08:36:00,mnr,23.04
2022-07-22T08:37:00,mnr,20.04
2022-07-22T08:38:00,mnr,18.38
2022-07-22T08:39:00,mnr,19.01
2022-07-22T08:40:00,mnr,17.49
2022-07-22T08:41:00,mnr,17.98
2022-07-22T08:42:00,mnr,17.98
2022-07-22T08:43:00,mnr,18.07
2022-07-22T08:44:00,mnr,18.73
2022-07-22T08:45:00,mnr,17.18
2022-07-22T08:46:00,mnr,17.51
2022-07-22T08:47:00,mnr,17.62
2022-07-22T08:48:00,mnr,17.89
2022-07-22T08:49:00,mnr,17.87
2022-07-22T08:50:00,mnr,18.01
2022-07-22T08:51:00,mnr,19.04
2022-07-22T08:52:00,mnr,17.91
2022-07-22T08:53:00,mnr,18.03
2022-07-22T08:54:00,mnr,18.18
2022-07-22T08:55:00,mnr,18.20
2022-07-22T08:56:00,mnr,18.54
2022-07-22T08:57:00,mnr,18.52
2022-07-22T08:58:00,mnr,18.68
2022-07-22T08:59:00,mnr,18.37
2022-07-22T09:00:00,mnr,18.55
2022-07-22T09:01:00,mnr,18.62
2022-07-22T09:02:00,mnr,18.72
2022-07-22T09:03:00,mnr,18.83
2022-07-22T09:04:00,mnr,18.92
2022-07-22T09:05:00,mnr,19.30
2022-07-22T09:06:00,mnr,18.28
2022-07-22T09:07:00,mnr,18.87
2022-07-22T09:08:00,mnr,19.36
2022-07-22T09:09:00,mnr,18.79
2022-07-22T09:10:00,mnr,18.86
2022-07-22T09:11:00,mnr,19.21
2022-07-22T09:12:00,mnr,19.09
2022-07-22T09:13:00,mnr,19.49
2022-07-22T09:14:00,mnr,19.89
2022-07-22T09:15:00,mnr,19.57
2022-07-22T09:16:00,mnr,20.05
2022-07-22T09:17:00,mnr,20.18
2022-07-22T09:18:00,mnr,18.95
2022-07-22T09:19:00,mnr,19.01
2022-07-22T09:20:00,mnr,18.54
2022-07-22T09:21:00,mnr,18.58
2022-07-22T09:22:00,mnr,18.62
2022-07-22T09:23:00,mnr,17.81
2022-07-22T09:24:00,mnr,17.68
2022-07-22T09:25:00,mnr,17.69
2022-07-22T09:26:00,mnr,17.81
2022-07-22T09:27:00,mnr,20.09
2022-07-22T09:28:00,mnr,21.92
2022-07-22T09:29:00,mnr,24.17
2022-07-22T09:30:00,mnr,25.11
2022-07-22T09:31:00,mnr,26.13
2022-07-22T09:32:00,mnr,27.58
2022-07-22T09:33:00,mnr,27.59
2022-07-22T09:34:00,mnr,28.15
2022-07-22T09:35:00,mnr,18.92
2022-07-22T09:36:00,mnr,20.61
2022-07-22T09:37:00,mnr,21.38
2022-07-22T09:38:00,mnr,22.16
2022-07-22T09:39:00,mnr,21.06
2022-07-22T09:40:00,mnr,20.34
2022-07-22T09:41:00,mnr,16.98
2022-07-22T09:42:00,mnr,16.62
2022-07-22T09:43:00,mnr,15.80
2022-07-22T09:44:00,mnr,16.37
2022-07-22T09:45:00,mnr,16.54
2022-07-22T09:46:00,mnr,16.68
2022-07-22T09:47:00,mnr,16.52
2022-07-22T09:48:00,mnr,17.13
2022-07-22T09:49:00,mnr,17.15
2022-07-22T09:50:00,mnr,17.19
2022-07-22T09:51:00,mnr,18.04
2022-07-22T09:52:00,mnr,18.22
2022-07-22T09:53:00,mnr,18.42
2022-07-22T09:54:00,mnr,18.53
2022-07-22T09:55:00,mnr,18.95
2022-07-22T09:56:00,mnr,18.67
2022-07-22T09:57:00,mnr,18.73
2022-07-22T09:58:00,mnr,18.66
2022-07-22T09:59:00,mnr,18.50
2022-07-22T10:00:00,mnr,18.67
2022-07-22T10:01:00,mnr,20.24
2022-07-22T10:02:00,mnr,17.12
2022-07-22T10:03:00,mnr,17.84
2022-07-22T10:04:00,mnr,18.29
2022-07-22T10:05:00,mnr,18.27
2022-07-22T10:06:00,mnr,18.52
2022-07-22T10:07:00,mnr,18.35
2022-07-22T10:08:00,mnr,18.70
2022-07-22T10:09:00,mnr,18.94
2022-07-22T10:10:00,mnr,18.65
2022-07-22T10:11:00,mnr,18.42
2022-07-22T10:12:00,mnr,18.87
2022-07-22T10:13:00,mnr,18.11
2022-07-22T10:14:00,mnr,18.08
2022-07-22T10:15:00,mnr,18.76
2022-07-22T10:16:00,mnr,18.86
2022-07-22T10:17:00,mnr,19.21
2022-07-22T10:18:00,mnr,19.57
2022-07-22T10:19:00,mnr,20.02
2022-07-22T10:20:00,mnr,20.12
2022-07-22T10:21:00,mnr,19.72
2022-07-22T10:22:00,mnr,18.46
2022-07-22T10:23:00,mnr,19.41
2022-07-22T10:24:00,mnr,19.27
2022-07-22T10:25:00,mnr,20.23
2022-07-22T10:26:00,mnr,21.05
2022-07-22T10:27:00,mnr,21.13
2022-07-22T10:28:00,mnr,20.95
2022-07-22T10:29:00,mnr,21.55
2022-07-22T10:30:00,mnr,22.31
2022-07-22T10:31:00,mnr,23.35
2022-07-22T10:32:00,mnr,22.70
2022-07-22T10:33:00,mnr,23.10
2022-07-22T10:34:00,mnr,23.64
2022-07-22T10:35:00,mnr,24.19
2022-07-22T10:36:00,mnr,24.18
2022-07-22T10:37:00,mnr,25.09
2022-07-22T10:38:00,mnr,25.60
2022-07-22T10:39:00,mnr,25.01
2022-07-22T10:40:00,mnr,24.95
2022-07-22T10:41:00,mnr,24.89
2022-07-22T10:42:00,mnr,22.08
2022-07-22T10:43:00,mnr,22.02
2022-07-22T10:44:00,mnr,22.01
2022-07-22T10:45:00,mnr,21.67
2022-07-22T10:46:00,mnr,22.53
2022-07-22T10:47:00,mnr,19.03
2022-07-22T10:48:00,mnr,22.72
2022-07-22T10:49:00,mnr,23.07
2022-07-22T10:50:00,mnr,22.91
2022-07-22T10:51:00,mnr,22.76
2022-07-22T10:52:00,mnr,23.00
2022-07-22T10:53:00,mnr,23.33
2022-07-22T10:54:00,mnr,24.75
2022-07-22T10:55:00,mnr,25.57
2022-07-22T10:56:00,mnr,28.76
2022-07-22T10:57:00,mnr,25.26
2022-07-22T10:58:00,mnr,22.49
2022-07-22T10:59:00,mnr,23.18
2022-07-22T11:00:00,mnr,23.21
2022-07-22T11:01:00,mnr,22.92
2022-07-22T11:02:00,mnr,22.68
2022-07-22T11:03:00,mnr,23.10
2022-07-22T11:04:00,mnr,22.72
2022-07-22T11:05:00,mnr,23.36
2022-07-22T11:06:00,mnr,23.14
2022-07-22T11:07:00,mnr,23.24
2022-07-22T11:08:00,mnr,22.60
2022-07-22T11:09:00,mnr,22.22
2022-07-22T11:10:00,mnr,21.16
2022-07-22T11:11:00,mnr,21.23
2022-07-22T11:12:00,mnr,21.24
2022-07-22T11:13:00,mnr,17.18
2022-07-22T11:14:00,mnr,22.03
2022-07-22T11:15:00,mnr,21.59
2022-07-22T11:16:00,mnr,21.37
2022-07-22T11:17:00,mnr,21.25
2022-07-22T11:18:00,mnr,21.42
2022-07-22T11:19:00,mnr,21.90
2022-07-22T11:20:00,mnr,22.48
2022-07-22T11:21:00,mnr,23.23
2022-07-22T11:22:00,mnr,23.87
2022-07-22T11:23:00,mnr,24.37
2022-07-22T11:24:00,mnr,25.09
2022-07-22T11:25:00,mnr,25.48
2022-07-22T11:26:00,mnr,25.78
2022-07-22T11:27:00,mnr,26.28
2022-07-22T11:28:00,mnr,26.21
2022-07-22T11:29:00,mnr,26.24
2022-07-22T11:30:00,mnr,27.21
2022-07-22T11:31:00,mnr,25.38
2022-07-22T11:32:00,mnr,25.56
2022-07-22T11:33:00,mnr,25.79
2022-07-22T11:34:00,mnr,26.09
2022-07-22T11:35:00,mnr,24.72
2022-07-22T11:36:00,mnr,24.16
2022-07-22T11:37:00,mnr,24.04
2022-07-22T11:38:00,mnr,23.83
2022-07-22T11:39:00,mnr,23.96
2022-07-22T11:40:00,mnr,23.96
2022-07-22T11:41:00,mnr,24.03
2022-07-22T11:42:00,mnr,24.33
2022-07-22T11:43:00,mnr,23.90
2022-07-22T11:44:00,mnr,23.63
2022-07-22T11:45:00,mnr,23.52
2022-07-22T11:46:00,mnr,23.35
2022-07-22T11:47:00,mnr,23.18
2022-07-22T11:48:00,mnr,23.02
2022-07-22T11:49:00,mnr,23.00
2022-07-22T11:50:00,mnr,22.97
2022-07-22T11:51:00,mnr,23.55
2022-07-22T11:52:00,mnr,22.32
2022-07-22T11:53:00,mnr,23.35
2022-07-22T11:54:00,mnr,23.34
2022-07-22T11:55:00,mnr,23.97
2022-07-22T11:56:00,mnr,24.66
2022-07-22T11:57:00,mnr,24.57
2022-07-22T11:58:00,mnr,24.99
2022-07-22T11:59:00,mnr,25.85
2022-07-22T12:00:00,mnr,25.39
2022-07-22T12:01:00,mnr,24.55
2022-07-22T12:02:00,mnr,23.30
2022-07-22T12:03:00,mnr,21.66
2022-07-22T12:04:00,mnr,21.32
2022-07-22T12:05:00,mnr,22.15
2022-07-22T12:06:00,mnr,22.10
2022-07-22T12:07:00,mnr,22.65
2022-07-22T12:08:00,mnr,23.17
2022-07-22T12:09:00,mnr,23.95
2022-07-22T12:10:00,mnr,23.43
2022-07-22T12:11:00,mnr,23.59
2022-07-22T12:12:00,mnr,25.12
2022-07-22T12:13:00,mnr,23.73
2022-07-22T12:14:00,mnr,23.88
2022-07-22T12:15:00,mnr,24.16
2022-07-22T12:16:00,mnr,24.39
2022-07-22T12:17:00,mnr,25.79
2022-07-22T12:18:00,mnr,28.69
2022-07-22T12:19:00,mnr,31.27
2022-07-22T12:20:00,mnr,33.30
2022-07-22T12:21:00,mnr,36.16
2022-07-22T12:22:00,mnr,35.08
2022-07-22T12:23:00,mnr,35.07
2022-07-22T12:24:00,mnr,34.85
2022-07-22T12:25:00,mnr,25.80
2022-07-22T12:26:00,mnr,25.24
2022-07-22T12:27:00,mnr,25.90
2022-07-22T12:28:00,mnr,27.29
2022-07-22T12:29:00,mnr,27.80
2022-07-22T12:30:00,mnr,27.50
2022-07-22T12:31:00,mnr,29.05
2022-07-22T12:32:00,mnr,31.01
2022-07-22T12:33:00,mnr,32.12
2022-07-22T12:34:00,mnr,33.31
2022-07-22T12:35:00,mnr,34.09
2022-07-22T12:36:00,mnr,33.34
2022-07-22T12:37:00,mnr,29.12
2022-07-22T12:38:00,mnr,29.09
2022-07-22T12:39:00,mnr,28.08
2022-07-22T12:40:00,mnr,27.84
2022-07-22T12:41:00,mnr,26.94
2022-07-22T12:42:00,mnr,27.54
2022-07-22T12:43:00,mnr,27.91
2022-07-22T12:44:00,mnr,28.15
2022-07-22T12:45:00,mnr,28.29
2022-07-22T12:46:00,mnr,26.98
2022-07-22T12:47:00,mnr,23.78
2022-07-22T12:48:00,mnr,22.94
2022-07-22T12:49:00,mnr,22.81
2022-07-22T12:50:00,mnr,22.99
2022-07-22T12:51:00,mnr,23.75
2022-07-22T12:52:00,mnr,23.48
2022-07-22T12:53:00,mnr,22.65
2022-07-22T12:54:00,mnr,22.76
2022-07-22T12:55:00,mnr,22.59
2022-07-22T12:56:00,mnr,22.80
2022-07-22T12:57:00,mnr,22.65
2022-07-22T12:58:00,mnr,22.65
2022-07-22T12:59:00,mnr,22.86
2022-07-22T13:00:00,mnr,23.37
2022-07-22T13:01:00,mnr,23.87
2022-07-22T13:02:00,mnr,24.39
2022-07-22T13:03:00,mnr,25.24
2022-07-22T13:04:00,mnr,24.78
2022-07-22T13:05:00,mnr,24.02
2022-07-22T13:06:00,mnr,22.12
2022-07-22T13:07:00,mnr,23.16
2022-07-22T13:08:00,mnr,23.44
2022-07-22T13:09:00,mnr,24.03
2022-07-22T13:10:00,mnr,24.67
2022-07-22T13:11:00,mnr,24.21
2022-07-22T13:12:00,mnr,24.19
2022-07-22T13:13:00,mnr,23.42
2022-07-22T13:14:00,mnr,22.99
2022-07-22T13:15:00,mnr,23.39
2022-07-22T13:16:00,mnr,21.98
2022-07-22T13:17:00,mnr,22.75
2022-07-22T13:18:00,mnr,22.50
2022-07-22T13:19:00,mnr,21.82
2022-07-22T13:20:00,mnr,21.54
2022-07-22T13:21:00,mnr,21.94
2022-07-22T13:22:00,mnr,22.12
2022-07-22T13:23:00,mnr,21.94
2022-07-22T13:24:00,mnr,22.64
2022-07-22T13:25:00,mnr,22.15
2022-07-22T13:26:00,mnr,22.60
2022-07-22T13:27:00,mnr,22.36
2022-07-22T13:28:00,mnr,22.64